CAPE
0 0 0 0 0 0 0 0 0 0 0 0 0 0 0 0 0 0 0 0 0 0 0 0 0 0 0 0 0 0 0 0 0 0 0 0 0 0 0 0 0 0 0 0 0
0 0 0 0 0 0 0 0 0 0 0 0 0 0 0 0 0 0 0 0 0 0 0 0 0 0 0 0 0 0 0 0 0 0 0 0 0 0 0 0 0 0 0 0 0
0 0 0 0 0 0 0 0 0 0 0 0 0 0 0 0 0 0 0 0 0 0 0 0 0 0 0 0 0 0 0 0 0 0 0 0 0 0 0 0 0 0 0 0 0
0 0 0 0 0 0 0 0 0 0 0 0 0 0 0 0 0 0 0 0 0 0 0 0 0 0 0 0 0 0 0 0 0 0 0 0 0 0 0 0 0 0 0 0 0
0 0 0 0 0 0 0 0 0 0 0 0 0 0 0 0 0 0 0 0 0 0 0 0 0 0 0 0 0 0 0 0 0 0 0 0 0 0 0 0 0 0 0 0 0
0 0 0 0 0 0 0 0 0 0 0 0 0 0 0 0 0 0 0 0 0 0 0 0 0 0 0 0 0 0 0 0 0 0 0 0 0 0 0 0 0 0 0 0 0
0 0 0 0 0 0 0 0 0 0 0 0 0 0 0 0 0 0 0 0 0 0 0 0 0 0 0 0 0 0 0 0 0 0 0 0 0 0 0 0 0 0 0 0 0
0 0 0 0 0 0 0 0 0 0 0 0 0 0 0 0 0 0 0 0 0 0 0 0 0 0 0 0 0 0 0 0 0 0 0 0 0 0 0 0 0 0 0 0 0
0 0 0 0 0 0 0 0 0 0 0 0 0 0 0 0 0 0 0 0 0 0 0 0 0 0 0 0 0 0 0 0 0 0 0 0 0 0 0 0 0 0 0 0 0
0 0 0 0 0 0 0 0 0 0 0 0 0 0 0 0 0 0 0 0 0 0 0 0 0 0 0 0 0 0 0 0 0 0 0 0 0 0 0 0 0 0 0 0 0
0 0 0 0 0 0 0 0 0 0 0 0 0 0 0 0 0 0 0 0 0 0 0 0 0 0 0 0 0 0 0 0 0 0 0 0 0 0 0 0 0 0 0 0 0
2 0 0 0 0 0 0 0 0 0 0 0 0 0 0 0 0 0 0 0 0 0 0 0 0 0 0 0 0 0 0 0 0 0 0 0 0 0 0 0 0 0 0 0 0
2 0 0 1 0 1 0 0 0 0 0 0 0 0 0 0 0 0 0 0 0 0 0 0 0 0 0 0 0 0 0 0 0 0 0 0 0 0 0 0 0 0 0 0 0
0 2 0 0 0 0 5 0 0 0 0 0 0 0 0 0 0 0 0 0 0 0 0 0 0 0 0 0 0 0 0 0 0 0 0 0 0 0 0 0 0 0 0 0 0
0 0 0 0 1 14 2 0 0 0 7 0 0 0 0 0 0 0 0 0 0 0 0 0 0 0 0 0 0 0 0 0 0 0 0 0 0 0 0 0 0 0 0 0 0
0 0 0 1 6 12 0 0 0 3 3 0 0 0 0 0 0 0 0 0 0 0 0 0 0 0 0 0 0 0 0 0 0 0 0 0 0 0 0 0 0 0 0 0 0
0 0 0 0 30 0 6 8 1 0 0 0 0 0 0 0 0 0 0 0 0 0 0 0 0 0 0 0 0 0 0 0 0 0 0 0 0 0 0 0 0 0 0 0 0
0 0 0 0 0 0 9 52 0 0 1 0 0 0 0 0 0 0 0 0 0 0 0 0 0 0 0 0 0 0 0 0 0 0 0 0 0 0 0 0 0 0 0 0 0
0 0 0 0 0 2 6 6 0 0 0 0 0 0 0 0 0 0 0 0 0 0 0 0 0 0 0 0 0 0 0 0 0 0 0 0 0 0 0 0 0 0 0 0 0
0 0 0 0 0 39 17 4 5 0 1 2 4 11 8 0 0 0 0 0 0 0 0 0 0 0 0 0 0 0 0 0 0 0 0 0 0 0 0 0 0 0 0 0 0
0 0 0 0 3 65 6 5 9 19 9 12 0 1 11 13 0 0 0 0 0 0 0 0 0 0 0 0 0 0 0 0 0 0 0 0 0 0 0 0 0 0 0 0 0
6 0 0 6 11 5 1 1 4 0 0 3 0 0 10 34 22 7 0 0 0 0 0 0 0 0 0 0 0 0 0 0 0 0 0 0 0 0 0 0 0 0 0 0 0
9 2 0 11 0 0 0 0 4 0 3 5 2 0 9 29 25 29 7 10 0 0 0 0 0 0 0 0 0 0 0 0 0 0 0 0 0 0 0 0 0 0 0 0 0
7 0 3 24 0 0 0 0 0 0 3 6 11 19 11 18 14 17 7 2 0 0 0 0 2 0 0 0 0 0 0 0 0 0 0 0 0 0 0 0 0 0 0 0 0
6 1 0 3 1 6 0 0 0 0 0 0 3 3 10 16 12 7 5 11 0 0 0 0 0 1 1 1 0 1 3 0 0 0 0 0 0 0 0 0 0 0 0 0 0
8 7 5 0 0 5 2 0 0 0 0 0 0 0 1 0 0 0 14 20 6 3 0 0 0 0 0 0 0 0 0 0 3 0 0 0 0 0 0 0 0 0 0 0 0
16 3 20 0 0 4 0 0 0 0 0 0 0 0 0 0 3 0 0 0 0 0 0 4 2 0 0 0 0 2 0 0 0 0 0 0 0 0 0 0 0 0 0 0 0
CIN
0 0 0 0 0 0 0 0 0 0 0 0 0 0 0 0 0 0 0 0 0 0 0 0 0 0 0 0 0 0 0 0 0 0 0 0 0 0 0 0 0 0 0 0 0
0 0 0 0 0 0 0 0 0 0 0 0 0 0 0 0 0 0 0 0 0 0 0 0 0 0 0 0 0 0 0 0 0 0 0 0 0 0 0 0 0 0 0 0 0
0 0 0 0 0 0 0 0 0 0 0 0 0 0 0 0 0 0 0 0 0 0 0 0 0 0 0 0 0 0 0 0 0 0 0 0 0 0 0 0 0 0 0 0 0
0 0 0 0 0 0 0 0 0 0 0 0 0 0 0 0 0 0 0 0 0 0 0 0 0 0 0 0 0 0 0 0 0 0 0 0 0 0 0 0 0 0 0 0 0
0 0 0 0 0 0 0 0 0 0 0 0 0 0 0 0 0 0 0 0 0 0 0 0 0 0 0 0 0 0 0 0 0 0 0 0 0 0 0 0 0 0 0 0 0
0 0 0 0 0 0 0 0 0 0 0 0 0 0 0 0 0 0 0 0 0 0 0 0 0 0 0 0 0 0 0 0 0 0 0 0 0 0 0 0 0 0 0 0 0
0 0 0 0 0 0 0 0 0 0 0 0 0 0 0 0 0 0 0 0 0 0 0 0 0 0 0 0 0 0 0 0 0 0 0 0 0 0 0 0 0 0 0 0 0
0 0 0 0 0 0 0 0 0 0 0 0 0 0 0 0 0 0 0 0 0 0 0 0 0 0 0 0 0 0 0 0 0 0 0 0 0 0 0 0 0 0 0 0 0
0 0 0 0 0 0 0 0 0 0 0 0 0 0 0 0 0 0 0 0 0 0 0 0 0 0 0 0 0 0 0 0 0 0 0 0 0 0 0 0 0 0 0 0 0
0 0 0 0 0 0 0 0 0 0 0 0 0 0 0 0 0 0 0 0 0 0 0 0 0 0 0 0 0 0 0 0 0 0 0 0 0 0 0 0 0 0 0 0 0
0 0 0 0 0 0 0 0 0 0 0 0 0 0 0 0 0 0 0 0 0 0 0 0 0 0 0 0 0 0 0 0 0 0 0 0 0 0 0 0 0 0 0 0 0
0 0 0 0 0 0 0 0 0 0 0 0 0 0 0 0 0 0 0 0 0 0 0 0 0 0 0 0 0 0 0 0 0 0 0 0 0 0 0 0 0 0 0 0 0
0 0 0 -20 0 -20 0 0 0 0 0 0 0 0 0 0 0 0 0 0 0 0 0 0 0 0 0 0 0 0 0 0 0 0 0 0 0 0 0 0 0 0 0 0 0
0 0 0 0 0 0 -52 0 0 0 0 0 0 0 0 0 0 0 0 0 0 0 0 0 0 0 0 0 0 0 0 0 0 0 0 0 0 0 0 0 0 0 0 0 0
0 0 0 0 -24 -16 -12 0 0 -1 -2 0 0 0 0 0 0 0 0 0 0 0 0 0 0 0 0 0 0 0 0 0 0 0 0 0 0 0 0 0 0 0 0 0 0
0 0 0 -1 -21 -31 0 0 0 -13 -9 0 0 0 0 0 0 0 0 0 0 0 0 0 0 0 0 0 0 0 0 0 0 0 0 0 0 0 0 0 0 0 0 0 0
0 0 0 0 -1 -8 -29 -13 0 0 -1 0 0 0 0 0 0 0 0 0 0 0 0 0 0 0 0 0 0 0 0 0 0 0 0 0 0 0 0 0 0 0 0 0 0
0 0 0 0 0 0 -72 -1 0 0 -4 0 0 0 0 0 0 0 0 0 0 0 0 0 0 0 0 0 0 0 0 0 0 0 0 0 0 0 0 0 0 0 0 0 0
0 0 0 0 0 -15 -6 -4 0 0 -1 0 0 0 0 0 0 0 0 0 0 0 0 0 0 0 0 0 0 0 0 0 0 0 0 0 0 0 0 0 0 0 0 0 0
0 0 0 0 0 -2 -2 0 0 0 -11 -3 -2 -2 -3 0 0 0 0 0 0 0 0 0 0 0 0 0 0 0 0 0 0 0 0 0 0 0 0 0 0 0 0 0 0
0 0 0 0 -6 0 -1 0 -1 -3 -6 -4 0 -1 -2 -2 0 0 0 0 0 0 0 0 0 0 0 0 0 0 0 0 0 0 0 0 0 0 0 0 0 0 0 0 0
0 0 0 0 -1 -1 -3 -1 -3 -1 -1 -7 0 0 -2 -3 -1 -2 0 0 0 0 0 0 0 0 0 0 0 0 0 0 0 0 0 0 0 0 0 0 0 0 0 0 0
0 -1 0 -4 0 0 0 0 -1 -1 -1 -1 -1 -1 -1 -1 -1 -5 -15 -3 0 0 0 0 0 0 -1 0 0 0 0 0 0 0 0 0 0 0 0 0 0 0 0 0 0
-2 0 -1 -1 0 0 0 0 0 0 0 0 -1 -1 -1 -1 -2 -3 -11 -12 0 0 0 0 0 0 0 0 0 0 0 0 0 0 0 0 0 0 0 0 0 0 0 0 0
-2 -1 -1 0 0 0 0 0 0 0 0 0 -1 -2 -1 -1 -1 -1 -1 -10 0 0 0 0 0 0 0 0 0 0 -15 0 0 0 0 0 0 0 0 0 0 0 0 0 0
-1 0 -7 0 -1 -1 -1 0 0 0 0 0 0 0 -1 0 0 0 -2 -2 -6 -4 0 0 0 0 0 0 0 0 0 -1 -1 0 0 0 0 0 0 0 0 0 0 0 0
-1 -17 -2 -1 0 -1 0 0 0 0 0 0 0 0 0 0 -2 -2 0 0 0 0 0 -1 -1 0 0 0 0 0 0 0 0 0 0 0 0 0 0 0 0 0 0 0 0
Wind_Speed
18 18 17 18 18 18 18 18 19 19 19 19 20 19 19 18 14 16 16 14 15 15 15 14 14 13 12 11 13 14 12 26 24 21 18 11 15 20 21 19 17 14 9 12 13
19 18 18 18 18 18 19 19 19 20 20 20 20 20 21 18 18 19 16 16 16 15 14 13 12 11 11 11 11 10 13 22 16 18 19 10 14 15 21 19 17 15 10 10 11
19 19 19 18 18 19 19 20 19 20 20 20 21 20 20 16 19 18 16 16 17 16 16 15 14 14 13 13 12 13 17 16 17 18 18 12 6 3 21 21 18 16 12 10 12
19 19 19 19 19 20 20 20 20 20 21 21 21 21 19 16 21 17 17 16 17 16 13 13 14 16 16 14 15 18 18 19 17 17 18 16 16 8 20 22 21 17 9 10 12
19 19 20 20 20 21 21 21 21 21 21 21 22 21 17 19 20 15 16 15 15 15 15 15 16 18 17 16 16 20 17 17 17 17 18 21 19 18 24 22 12 18 6 9 12
19 20 21 20 21 21 21 22 21 21 22 22 21 22 19 22 17 16 16 15 15 15 15 16 18 18 17 18 17 18 18 18 18 18 20 21 23 20 18 15 19 8 7 8 12
21 21 22 22 22 22 23 23 23 22 23 22 21 19 21 21 17 17 16 15 15 15 16 16 15 18 14 17 16 18 21 20 20 19 21 21 26 16 3 17 21 17 16 15 12
20 22 22 22 22 23 24 24 24 23 22 22 21 19 22 17 16 16 15 15 14 14 13 14 14 14 16 14 16 19 22 23 16 18 20 20 31 21 19 9 3 20 17 12 13
18 21 21 21 22 23 24 24 24 23 21 21 20 20 22 15 18 16 16 16 14 14 13 13 15 16 14 18 19 19 26 22 23 20 22 18 29 20 19 19 24 30 26 14 11
23 22 22 21 21 23 24 23 20 21 19 18 19 22 20 21 17 16 15 13 17 14 15 16 17 18 19 17 24 24 24 25 26 20 23 27 35 33 29 25 30 32 32 13 6
18 20 23 23 22 22 22 19 21 22 21 23 21 23 17 16 15 17 15 14 16 18 22 20 22 24 21 22 27 23 25 26 23 22 28 33 41 39 35 39 39 40 37 28 19
19 20 21 21 22 23 21 20 18 19 24 23 23 22 19 17 20 18 15 18 20 24 22 23 29 25 23 21 23 26 31 31 31 25 29 37 45 42 40 41 42 40 36 23 11
21 19 20 19 21 22 21 19 18 19 26 24 23 25 23 20 24 20 14 19 22 25 25 30 25 24 23 24 25 27 31 30 32 29 33 40 48 44 37 30 34 40 37 14 13
21 22 19 15 20 21 22 20 19 19 29 30 27 25 24 21 29 21 19 22 23 27 25 29 27 25 25 28 26 35 28 30 34 34 37 28 47 43 40 41 34 35 27 24 22
21 22 22 20 19 21 21 19 19 19 35 22 24 19 19 23 23 24 21 25 30 28 25 30 27 27 30 28 24 29 25 26 27 32 39 37 42 43 34 36 33 34 33 30 28
24 22 22 20 23 21 21 17 19 27 34 25 18 22 23 25 25 21 22 22 25 30 32 34 26 26 27 24 24 20 24 25 27 31 45 40 37 54 42 42 33 29 27 21 23
25 24 22 19 19 16 16 18 31 39 25 27 25 20 19 21 24 25 26 28 30 34 40 33 35 29 25 26 23 23 26 35 38 37 47 32 37 50 40 37 35 33 31 35 29
24 24 22 22 20 18 19 26 35 25 28 20 19 19 21 18 21 21 23 30 29 32 36 36 41 30 29 32 30 29 29 35 44 42 47 32 44 45 31 31 34 34 34 37 36
23 23 23 22 21 21 23 39 41 37 28 26 23 27 27 26 25 24 28 30 26 25 32 33 39 27 27 29 28 31 37 35 43 43 46 46 54 56 46 41 42 43 41 38 35
23 24 24 20 19 21 31 47 43 31 27 29 38 33 37 30 28 27 26 24 25 24 23 28 38 28 28 26 30 31 27 35 34 45 49 52 52 52 45 46 43 42 39 40 35
22 26 22 18 17 26 41 43 37 32 30 30 36 39 37 38 34 34 34 27 24 24 21 25 30 30 25 31 31 31 36 33 34 39 47 52 52 45 47 39 36 31 31 31 29
22 27 20 16 26 31 42 36 32 31 32 34 35 38 38 35 39 39 42 34 24 22 26 24 30 39 37 27 26 31 35 35 42 44 42 48 59 43 37 35 36 37 37 34 32
26 27 20 22 34 37 34 36 35 34 35 32 36 34 34 38 40 39 38 29 28 28 29 24 33 42 40 37 33 37 37 37 38 42 47 49 51 51 45 44 42 43 40 37 34
27 30 26 29 33 35 37 38 38 31 34 33 33 33 36 40 37 38 37 30 28 28 28 29 34 41 47 39 28 33 36 38 40 47 50 50 52 62 54 50 51 48 43 38 36
30 34 29 34 39 35 33 33 37 37 32 30 35 38 36 40 40 44 41 42 37 32 30 33 45 43 50 52 52 53 50 42 43 45 48 51 47 51 57 45 47 47 49 51 53
33 34 32 36 36 36 37 39 37 35 31 35 38 35 37 42 42 41 39 36 39 32 34 32 44 42 55 53 51 57 53 53 51 50 50 52 58 47 59 53 50 50 51 51 51
31 31 34 39 38 39 42 42 38 36 36 39 35 37 37 36 35 36 35 37 38 40 40 40 42 48 63 53 51 56 55 53 55 53 53 58 57 58 57 59 57 56 51 50 50
Wind_Direction
249 250 251 251 255 257 258 261 261 262 262 264 264 269 271 272 279 271 270 279 280 278 277 283 283 286 285 295 297 295 305 233 239 257 268 359 141 231 236 191 164 137 213 349 95
250 252 254 256 258 260 262 262 264 264 264 268 269 273 271 274 269 268 278 277 278 282 281 283 289 290 294 293 300 300 294 274 303 294 292 3 143 152 201 181 181 162 117 74 99
252 253 255 257 260 262 263 264 267 268 268 271 274 277 275 277 268 273 280 279 278 280 280 281 284 285 287 289 292 295 287 297 300 300 304 333 60 94 199 201 189 173 149 125 129
254 256 258 259 261 262 264 267 268 270 274 277 276 279 278 275 266 279 280 282 279 280 285 285 283 279 282 283 285 284 289 291 297 300 300 307 316 351 192 197 283 196 163 137 149
255 257 259 262 263 264 265 267 270 274 277 279 280 281 278 269 271 291 283 285 285 283 280 280 278 277 279 283 285 278 290 294 296 298 296 293 297 309 218 206 310 302 358 149 161
257 258 260 263 265 267 269 270 274 276 278 282 284 282 273 264 285 286 286 287 287 284 281 279 279 280 283 283 282 286 286 290 292 294 293 293 291 303 300 273 197 180 178 171 177
257 259 260 262 266 268 270 272 274 277 279 283 286 286 271 271 287 285 285 287 288 286 282 283 287 281 290 286 289 287 285 287 287 291 292 295 286 300 235 311 297 197 194 192 188
259 259 261 265 267 269 270 272 274 277 281 283 285 284 270 288 290 287 287 286 293 295 291 289 288 290 288 297 293 284 284 281 292 289 291 294 277 301 309 314 237 205 198 194 197
263 259 261 265 268 271 273 274 274 277 281 284 282 278 270 291 278 285 287 280 287 291 295 292 286 286 289 283 283 282 278 280 284 290 289 289 284 303 306 305 294 273 222 204 208
259 260 259 267 270 269 273 275 279 279 280 284 281 273 276 272 279 281 287 286 280 281 284 282 283 280 279 276 274 276 279 280 281 294 287 285 277 283 290 297 285 277 275 306 239
273 267 262 262 269 273 276 275 271 270 270 266 271 271 284 280 286 278 280 280 279 274 269 275 272 269 275 275 277 283 283 283 290 294 288 283 272 277 284 261 255 255 245 229 224
276 274 271 268 270 269 272 270 275 278 268 270 273 272 275 278 274 276 276 268 269 267 272 272 267 274 280 281 280 281 278 280 285 292 290 283 267 273 277 245 254 249 241 233 256
276 278 273 269 271 271 268 269 279 283 271 271 269 268 271 271 271 269 268 272 271 267 268 266 278 278 276 277 277 279 278 282 283 291 289 285 273 272 281 284 283 258 242 251 270
277 269 277 269 268 267 266 273 277 286 270 268 266 269 267 269 268 273 268 273 272 269 271 273 273 276 276 275 278 276 283 283 282 284 282 293 277 273 275 274 287 288 297 298 298
278 270 269 267 268 266 270 270 275 281 263 277 267 276 270 260 271 270 270 270 265 267 270 274 274 270 270 274 276 279 288 287 287 285 283 281 282 277 283 283 290 293 295 298 300
269 273 267 262 257 274 267 263 267 261 260 274 278 266 261 261 267 277 269 273 276 269 270 271 280 275 276 279 276 282 286 289 289 287 276 280 280 271 277 278 290 298 302 306 311
279 277 273 272 266 270 259 261 257 253 267 267 265 268 261 264 265 266 265 262 262 265 264 269 269 274 274 275 279 273 278 279 279 275 273 287 280 271 285 286 290 292 294 297 305
281 275 272 268 270 267 260 250 248 252 248 271 271 265 264 265 271 269 270 265 264 269 273 266 268 264 265 265 272 267 268 271 275 276 277 284 274 279 294 296 295 295 295 297 300
280 276 270 268 265 261 253 245 249 255 264 260 264 264 265 267 272 270 269 271 272 261 268 271 271 278 278 271 260 270 266 274 275 278 279 276 276 278 285 290 294 293 295 298 301
275 271 267 270 263 258 253 250 254 267 271 264 258 265 262 265 265 267 268 280 273 275 265 280 274 281 279 277 270 267 282 270 270 273 273 275 276 276 284 290 294 298 301 300 301
276 266 271 267 261 256 251 255 260 267 267 267 264 265 265 264 266 266 269 277 280 284 271 276 275 281 281 270 267 265 266 272 277 271 275 276 276 283 285 293 296 303 308 314 313
272 264 274 255 250 255 254 257 266 265 266 268 270 269 265 267 268 265 266 272 287 282 276 267 279 272 273 282 278 271 269 265 269 272 276 276 275 278 289 295 298 300 304 307 311
267 268 277 253 252 253 258 260 261 265 263 267 266 267 268 265 269 267 270 280 278 278 278 278 273 272 274 275 278 274 272 274 275 275 275 274 278 281 286 288 292 294 297 302 302
264 263 264 252 259 260 257 258 258 266 265 264 270 268 266 264 266 271 270 278 283 279 280 277 272 267 268 276 287 279 278 274 272 271 272 272 279 278 281 286 288 290 293 295 298
259 260 260 255 253 257 260 265 259 261 262 263 266 263 264 265 266 266 269 273 277 279 279 276 271 270 271 274 277 278 279 280 273 272 272 278 278 280 281 291 291 292 292 290 288
256 259 261 264 255 253 255 258 260 260 264 262 263 268 264 264 266 270 270 269 272 275 274 275 274 277 274 276 278 276 276 275 274 275 277 278 278 279 283 286 289 291 293 290 290
258 263 263 259 259 253 252 255 264 260 264 264 268 266 268 270 272 273 275 275 274 273 272 274 276 277 274 278 277 273 273 275 273 273 276 276 278 282 282 283 285 288 292 291 290